EW1036 Weather Reports


Display with metric or nautical units.
time (UTC)temp
F
wind
direction
speed
MPH
gust
MPH
rain 1hr
in
rain 24hr
in
rain mn
in
humidity
%
barometer
mb
20260506012532 68 0 0.0 1.0 0.00 0.00 0.00 76 1017.6
20260506012032 68 0 0.0 1.0 0.00 0.00 0.00 75 1017.4
20260506011543 68 0 0.0 0.0 0.00 0.00 0.00 74 1017.4
20260506011032 68 0 0.0 0.0 0.00 0.00 0.00 73 1017.5
20260506010532 68 0 0.0 0.0 0.00 0.00 0.00 73 1017.5
20260506010055 68 0 0.0 0.0 0.00 0.00 0.00 73 1017.4
20260506005531 69 0 0.0 0.0 0.00 0.00 0.00 72 1017.3
20260506005034 69 0 0.0 0.0 0.00 0.00 0.00 72 1017.4
20260506004551 69 0 0.0 0.0 0.00 0.00 0.00 72 1017.3
20260506004032 69 0 0.0 0.0 0.00 0.00 0.00 71 1017.4
20260506003532 69 0 0.0 0.0 0.00 0.00 0.00 71 1017.4
20260506003045 69 0 0.0 0.0 0.00 0.00 0.00 70 1017.3
20260506002533 69 0 0.0 1.0 0.00 0.00 0.00 70 1017.3
20260506002032 70 0 0.0 2.0 0.00 0.00 0.00 69 1017.4
20260506001550 70 0 0.0 2.0 0.00 0.00 0.00 69 1017.3
20260506001032 70 0 0.0 2.0 0.00 0.00 0.00 69 1017.3
20260506000533 70 0 0.0 2.0 0.00 0.00 0.00 69 1017.3
20260506000043 70 0 0.0 3.0 0.00 0.00 0.00 68 1017.3
20260505235532 70 0 0.0 3.0 0.00 0.00 0.00 68 1017.2
20260505235035 70 0 0.0 3.0 0.00 0.00 0.00 67 1017.3
20260505234548 71 142 0.0 3.0 0.00 0.00 0.00 67 1017.3
20260505234032 71 146 0.0 4.0 0.00 0.00 0.00 67 1017.3
20260505233528 71 163 1.0 4.0 0.00 0.00 0.00 66 1017.3
20260505233054 71 139 1.0 3.0 0.00 0.00 0.00 66 1017.3
20260505232534 71 143 0.0 3.0 0.00 0.00 0.00 66 1017.3
20260505232032 71 0 0.0 3.0 0.00 0.00 0.00 66 1017.3
20260505231545 71 146 0.0 3.0 0.00 0.00 0.00 65 1017.2
20260505231032 71 140 0.0 3.0 0.00 0.00 0.00 65 1017.2
20260505230532 71 138 1.0 5.0 0.00 0.00 0.00 64 1017.3
20260505230052 72 131 1.0 5.0 0.00 0.00 0.00 64 1017.3
20260505225532 72 143 1.0 4.0 0.00 0.00 0.00 63 1017.2
20260505225032 72 125 1.0 3.0 0.00 0.00 0.00 64 1017.1
20260505224552 72 139 0.0 3.0 0.00 0.00 0.00 63 1017.2
20260505224035 72 140 1.0 3.0 0.00 0.00 0.00 64 1017.2
20260505223533 72 0 0.0 3.0 0.00 0.00 0.00 64 1017.3
20260505223048 72 0 0.0 3.0 0.00 0.00 0.00 65 1017.3
20260505222532 72 0 1.0 3.0 0.00 0.00 0.00 65 1017.3
20260505222032 72 150 0.0 3.0 0.00 0.00 0.00 64 1017.3
20260505221543 72 152 0.0 5.0 0.00 0.00 0.00 64 1017.3
20260505221031 72 155 0.0 5.0 0.00 0.00 0.00 64 1017.3
20260505220531 73 156 1.0 5.0 0.00 0.00 0.00 63 1017.2
20260505220044 73 0 0.0 4.0 0.00 0.00 0.00 64 1017.1
20260505215531 72 124 1.0 5.0 0.00 0.00 0.00 64 1017.1
20260505215032 72 135 1.0 5.0 0.00 0.00 0.00 64 1017.2
20260505214538 72 126 1.0 4.0 0.00 0.00 0.00 63 1017.1
20260505214032 72 143 1.0 3.0 0.00 0.00 0.00 64 1017.0
20260505213531 72 132 1.0 3.0 0.00 0.00 0.00 64 1017.0
20260505213036 73 0 0.0 3.0 0.00 0.00 0.00 65 1017.0
20260505212532 73 138 1.0 5.0 0.00 0.00 0.00 64 1017.0
20260505212032 73 150 1.0 5.0 0.00 0.00 0.00 65 1017.0
20260505211547 72 147 1.0 5.0 0.00 0.00 0.00 64 1017.0
20260505211031 72 123 1.0 3.0 0.00 0.00 0.00 65 1017.1
20260505210532 73 141 1.0 4.0 0.00 0.00 0.00 63 1017.2
20260505210046 73 140 1.0 4.0 0.00 0.00 0.00 64 1017.3
20260505205532 73 142 1.0 4.0 0.00 0.00 0.00 65 1017.2
20260505205032 73 129 1.0 5.0 0.00 0.00 0.00 65 1017.1
20260505204542 73 141 2.0 5.0 0.00 0.00 0.00 65 1017.2
20260505204032 73 157 1.0 5.0 0.00 0.00 0.00 64 1017.2
20260505203531 74 151 1.0 5.0 0.00 0.00 0.00 64 1017.1
20260505203042 74 144 1.0 5.0 0.00 0.00 0.00 64 1017.1
20260505202531 74 151 1.0 5.0 0.00 0.00 0.00 63 1017.2
20260505202032 74 175 1.0 5.0 0.00 0.00 0.00 63 1017.3
20260505201552 74 132 1.0 5.0 0.00 0.00 0.00 62 1017.3
20260505201033 74 147 2.0 5.0 0.00 0.00 0.00 62 1017.4
20260505200532 74 155 2.0 5.0 0.00 0.00 0.00 63 1017.5
20260505200043 74 0 1.0 5.0 0.00 0.00 0.00 64 1017.6
20260505195532 74 163 0.0 4.0 0.00 0.00 0.00 63 1017.5
20260505195031 74 159 1.0 3.0 0.00 0.00 0.00 62 1017.7
20260505194542 75 146 1.0 3.0 0.00 0.00 0.00 63 1017.8
20260505194033 74 138 1.0 5.0 0.00 0.00 0.00 63 1017.9
20260505193532 74 124 1.0 5.0 0.00 0.00 0.00 63 1017.8
20260505193041 75 169 1.0 5.0 0.00 0.00 0.00 61 1018.0
20260505192534 75 152 1.0 3.0 0.00 0.00 0.00 61 1018.0
20260505192032 75 134 1.0 3.0 0.00 0.00 0.00 61 1018.1
20260505191610 76 140 1.0 3.0 0.00 0.00 0.00 61 1018.1
20260505191032 76 149 1.0 4.0 0.00 0.00 0.00 61 1018.1
20260505190529 76 0 1.0 5.0 0.00 0.00 0.00 60 1018.2
20260505190055 76 140 2.0 5.0 0.00 0.00 0.00 60 1018.2
20260505185533 76 146 1.0 5.0 0.00 0.00 0.00 58 1018.2
20260505185033 76 132 1.0 5.0 0.00 0.00 0.00 60 1018.1
20260505184545 76 162 1.0 5.0 0.00 0.00 0.00 60 1018.1
20260505184032 76 147 1.0 5.0 0.00 0.00 0.00 61 1018.2
20260505183533 76 141 1.0 5.0 0.00 0.00 0.00 60 1018.2
20260505183109 76 156 2.0 5.0 0.00 0.00 0.00 58 1018.2
20260505182533 76 128 1.0 5.0 0.00 0.00 0.00 59 1018.3
20260505182032 76 163 2.0 6.0 0.00 0.00 0.00 60 1018.4
20260505181543 76 144 2.0 6.0 0.00 0.00 0.00 59 1018.3
20260505181030 76 178 2.0 6.0 0.00 0.00 0.00 61 1018.4
20260505180531 76 145 1.0 5.0 0.00 0.00 0.00 60 1018.4
20260505180044 76 166 2.0 5.0 0.00 0.00 0.00 59 1018.3
20260505175531 77 166 2.0 5.0 0.00 0.00 0.00 58 1018.2
20260505175033 76 113 1.0 5.0 0.00 0.00 0.00 58 1018.3
20260505174547 76 150 1.0 5.0 0.00 0.00 0.00 58 1018.3
20260505174029 77 139 2.0 6.0 0.00 0.00 0.00 59 1018.3
20260505173531 77 141 2.0 6.0 0.00 0.00 0.00 59 1018.3
20260505173053 76 0 2.0 5.0 0.00 0.00 0.00 56 1018.4
20260505172532 76 146 1.0 4.0 0.00 0.00 0.00 59 1018.3
20260505172031 76 149 1.0 5.0 0.00 0.00 0.00 58 1018.3
20260505171551 75 167 2.0 5.0 0.00 0.00 0.00 59 1018.4
20260505171034 76 198 1.0 5.0 0.00 0.00 0.00 58 1018.3
20260505170532 76 127 2.0 5.0 0.00 0.00 0.00 57 1018.4
20260505170041 76 116 2.0 5.0 0.00 0.00 0.00 57 1018.4
20260505165531 76 183 1.0 5.0 0.00 0.00 0.00 58 1018.6
20260505165033 76 158 2.0 5.0 0.00 0.00 0.00 57 1018.5
20260505164546 77 0 1.0 5.0 0.00 0.00 0.00 56 1018.5
20260505164033 76 153 1.0 5.0 0.00 0.00 0.00 56 1018.6
20260505163532 76 0 0.0 3.0 0.00 0.00 0.00 58 1018.7
20260505163044 76 152 0.0 4.0 0.00 0.00 0.00 59 1018.7
20260505162532 75 0 1.0 4.0 0.00 0.00 0.00 57 1018.7
20260505162032 76 151 1.0 4.0 0.00 0.00 0.00 57 1018.6
20260505161551 75 133 0.0 4.0 0.00 0.00 0.00 56 1018.6
20260505161032 75 0 0.0 4.0 0.00 0.00 0.00 56 1018.7
20260505160533 75 176 1.0 4.0 0.00 0.00 0.00 59 1018.7
20260505153042 73 303 0.0 3.0 0.00 0.00 0.00 62 1018.8
20260505152533 73 309 0.0 2.0 0.00 0.00 0.00 64 1018.9
20260505152032 73 0 0.0 4.0 0.00 0.00 0.00 63 1018.8
20260505151550 73 0 0.0 4.0 0.00 0.00 0.00 62 1018.8
20260505151034 72 323 0.0 2.0 0.00 0.00 0.00 64 1018.8
20260505150534 72 0 0.0 2.0 0.00 0.00 0.00 64 1018.7
20260505140533 68 0 0.0 3.0 0.00 0.00 0.00 74 1019.0
20260505125033 63 0 0.0 0.0 0.00 0.00 0.00 94 1018.8
20260505124542 62 0 0.0 0.0 0.00 0.00 0.00 94 1018.9
20260505124034 62 0 0.0 1.0 0.00 0.00 0.00 94 1018.9
20260505123536 62 0 0.0 1.0 0.00 0.00 0.00 94 1018.9
20260505123040 61 0 0.0 0.0 0.00 0.00 0.00 94 1018.9
20260505122532 61 0 0.0 0.0 0.00 0.00 0.00 94 1018.9
20260505122030 61 0 0.0 0.0 0.00 0.00 0.00 94 1018.9
20260505121540 60 0 0.0 0.0 0.00 0.00 0.00 94 1018.8
20260505121029 60 0 0.0 0.0 0.00 0.00 0.00 94 1018.8
20260505120529 59 0 0.0 0.0 0.00 0.00 0.00 93 1018.8
20260505120104 59 0 0.0 0.0 0.00 0.00 0.00 93 1018.8
20260505115532 59 0 0.0 0.0 0.00 0.00 0.00 93 1018.7
20260505115033 59 0 0.0 0.0 0.00 0.00 0.00 93 1018.7
20260505114544 58 0 0.0 0.0 0.00 0.00 0.00 92 1018.7
20260505114033 58 0 0.0 0.0 0.00 0.00 0.00 92 1018.7
20260505113532 58 0 0.0 0.0 0.00 0.00 0.00 92 1018.7
20260505113044 58 0 0.0 0.0 0.00 0.00 0.00 92 1018.7
20260505112532 58 0 0.0 0.0 0.00 0.00 0.00 92 1018.6
20260505112032 58 0 0.0 0.0 0.00 0.00 0.00 92 1018.6
20260505111538 58 0 0.0 0.0 0.00 0.00 0.00 92 1018.5
20260505111033 58 0 0.0 0.0 0.00 0.00 0.00 91 1018.4
20260505110534 58 0 0.0 0.0 0.00 0.00 0.00 91 1018.4
20260505102029 58 0 0.0 0.0 0.00 0.00 0.00 92 1017.8
20260505101546 58 0 0.0 0.0 0.00 0.00 0.00 91 1017.7
20260505101033 58 0 0.0 0.0 0.00 0.00 0.00 91 1017.7
20260505100529 58 0 0.0 0.0 0.00 0.00 0.00 90 1017.6
20260505100043 58 0 0.0 0.0 0.00 0.00 0.00 90 1017.6
20260505095529 58 0 0.0 0.0 0.00 0.00 0.00 90 1017.5
20260505095033 58 0 0.0 0.0 0.00 0.00 0.00 90 1017.5
20260505094542 58 0 0.0 0.0 0.00 0.00 0.00 90 1017.4
20260505094034 58 0 0.0 0.0 0.00 0.00 0.00 90 1017.5
20260505093532 58 0 0.0 0.0 0.00 0.00 0.00 89 1017.4
20260505093044 59 0 0.0 0.0 0.00 0.00 0.00 89 1017.3
20260505092532 59 0 0.0 0.0 0.00 0.00 0.00 90 1017.3
20260505092032 59 0 0.0 0.0 0.00 0.00 0.00 90 1017.4
20260505091543 59 0 0.0 0.0 0.00 0.00 0.00 90 1017.3
20260505091032 59 0 0.0 0.0 0.00 0.00 0.00 89 1017.3
20260505090532 59 0 0.0 0.0 0.00 0.00 0.00 89 1017.3
20260505090051 59 0 0.0 0.0 0.00 0.00 0.00 89 1017.3
20260505085533 59 0 0.0 0.0 0.00 0.00 0.00 89 1017.2
20260505085032 59 0 0.0 0.0 0.00 0.00 0.00 89 1017.1
20260505084548 59 0 0.0 0.0 0.00 0.00 0.00 89 1017.1
20260505084034 59 0 0.0 0.0 0.00 0.00 0.00 88 1017.1
20260505083533 59 0 0.0 0.0 0.00 0.00 0.00 88 1017.1
20260505083050 59 0 0.0 0.0 0.00 0.00 0.00 88 1017.0
20260505082534 59 0 0.0 0.0 0.00 0.00 0.00 88 1017.0
20260505082034 59 0 0.0 0.0 0.00 0.00 0.00 88 1017.0
20260505081543 59 0 0.0 0.0 0.00 0.00 0.00 88 1016.9
20260505081033 59 0 0.0 0.0 0.00 0.00 0.00 88 1016.9
20260505080533 59 0 0.0 0.0 0.00 0.00 0.00 88 1016.9
20260505080051 59 0 0.0 0.0 0.00 0.00 0.00 88 1016.9
20260505075536 59 0 0.0 0.0 0.00 0.00 0.00 88 1016.9
20260505075032 59 0 0.0 0.0 0.00 0.00 0.00 88 1016.8
20260505074543 59 0 0.0 0.0 0.00 0.00 0.00 87 1016.8
20260505074032 59 0 0.0 0.0 0.00 0.00 0.00 87 1016.8
20260505073531 59 0 0.0 0.0 0.00 0.00 0.00 87 1016.7
20260505073102 59 0 0.0 0.0 0.00 0.00 0.00 87 1016.7
20260505072532 59 0 0.0 0.0 0.00 0.00 0.00 87 1016.7
20260505072035 59 0 0.0 0.0 0.00 0.00 0.00 86 1016.6
20260505071546 59 0 0.0 0.0 0.00 0.00 0.00 86 1016.7
20260505071034 59 0 0.0 0.0 0.00 0.00 0.00 86 1016.8
20260505070534 59 0 0.0 0.0 0.00 0.00 0.00 86 1016.8
20260505070049 59 0 0.0 0.0 0.00 0.00 0.00 85 1016.7
20260505065534 59 0 0.0 0.0 0.00 0.00 0.00 85 1016.8
20260505065033 60 0 0.0 0.0 0.00 0.00 0.00 85 1016.8
20260505064546 60 0 0.0 0.0 0.00 0.00 0.00 85 1016.7
20260505064032 60 0 0.0 0.0 0.00 0.00 0.00 84 1016.8
20260505063533 60 0 0.0 0.0 0.00 0.00 0.00 84 1016.8
20260505063041 60 0 0.0 0.0 0.00 0.00 0.00 84 1016.8
20260505062533 60 0 0.0 0.0 0.00 0.00 0.00 84 1016.8
20260505062029 60 0 0.0 0.0 0.00 0.00 0.00 83 1016.9
20260505061549 60 0 0.0 0.0 0.00 0.00 0.00 83 1016.9
20260505061029 60 0 0.0 0.0 0.00 0.00 0.00 82 1017.0
20260505060532 61 0 0.0 0.0 0.00 0.00 0.00 82 1017.0
20260505060049 61 0 0.0 0.0 0.00 0.00 0.00 81 1017.0
20260505055532 61 0 0.0 0.0 0.00 0.00 0.00 82 1017.0
20260505055033 61 0 0.0 0.0 0.00 0.00 0.00 81 1017.1
20260505054607 61 0 0.0 0.0 0.00 0.00 0.00 81 1017.2
20260505054033 61 0 0.0 0.0 0.00 0.00 0.00 81 1017.1
20260505053534 61 0 0.0 0.0 0.00 0.00 0.00 81 1017.1
20260505053100 61 0 0.0 0.0 0.00 0.00 0.00 81 1017.2
20260505052532 61 0 0.0 0.0 0.00 0.00 0.00 81 1017.2
20260505052030 61 0 0.0 0.0 0.00 0.00 0.00 81 1017.2
20260505051546 61 0 0.0 0.0 0.00 0.00 0.00 81 1017.2
20260505051032 61 0 0.0 0.0 0.00 0.00 0.00 81 1017.2
20260505050531 61 0 0.0 0.0 0.00 0.00 0.00 81 1017.3
20260505041545 62 0 0.0 0.0 0.00 0.00 0.00 80 1017.3
20260505041032 62 0 0.0 0.0 0.00 0.00 0.00 80 1017.3
20260505040533 62 0 0.0 0.0 0.00 0.00 0.00 80 1017.4
20260505040044 62 0 0.0 0.0 0.00 0.00 0.00 80 1017.4
20260505035534 62 0 0.0 0.0 0.00 0.00 0.00 80 1017.4
20260505035032 62 0 0.0 0.0 0.00 0.00 0.00 79 1017.5
20260505034549 62 0 0.0 0.0 0.00 0.00 0.00 79 1017.5
20260505034034 63 0 0.0 0.0 0.00 0.00 0.00 79 1017.5
20260505033534 63 0 0.0 0.0 0.00 0.00 0.00 79 1017.4
20260505033042 63 0 0.0 0.0 0.00 0.00 0.00 79 1017.4
20260505032533 63 0 0.0 0.0 0.00 0.00 0.00 78 1017.4
20260505032032 63 0 0.0 0.0 0.00 0.00 0.00 78 1017.4
20260505031553 63 0 0.0 0.0 0.00 0.00 0.00 78 1017.5
20260505031032 63 0 0.0 0.0 0.00 0.00 0.00 77 1017.4
20260505030532 63 0 0.0 0.0 0.00 0.00 0.00 78 1017.5
20260505030044 63 0 0.0 0.0 0.00 0.00 0.00 77 1017.6
20260505025534 64 0 0.0 0.0 0.00 0.00 0.00 77 1017.5
20260505025033 64 0 0.0 0.0 0.00 0.00 0.00 76 1017.5
20260505024544 64 0 0.0 0.0 0.00 0.00 0.00 76 1017.5
20260505024032 64 0 0.0 0.0 0.00 0.00 0.00 75 1017.6
20260505023534 64 0 0.0 0.0 0.00 0.00 0.00 75 1017.6
20260505023052 64 0 0.0 0.0 0.00 0.00 0.00 75 1017.6
20260505022532 64 0 0.0 0.0 0.00 0.00 0.00 75 1017.6
20260505022032 64 0 0.0 0.0 0.00 0.00 0.00 74 1017.6
20260505021545 64 0 0.0 0.0 0.00 0.00 0.00 74 1017.6
20260505021033 65 0 0.0 0.0 0.00 0.00 0.00 73 1017.6
20260505020532 65 0 0.0 0.0 0.00 0.00 0.00 73 1017.7
20260505020041 65 0 0.0 0.0 0.00 0.00 0.00 73 1017.7
20260505015534 65 0 0.0 0.0 0.00 0.00 0.00 72 1017.6
20260505015032 65 0 0.0 0.0 0.00 0.00 0.00 71 1017.6
20260505014540 65 0 0.0 0.0 0.00 0.00 0.00 71 1017.5
20260505014034 65 0 0.0 0.0 0.00 0.00 0.00 71 1017.5
20260505013529 66 0 0.0 0.0 0.00 0.00 0.00 71 1017.5
20260505013056 66 0 0.0 0.0 0.00 0.00 0.00 70 1017.4